Regional Weather Roundup
Issued by NWS Mobile, AL

Home | Current Version | Previous Version | Text Only | Print | Product List | Glossary On
Versions: 1 2 3 4 5 6 7 8 9 10 11 12 13 14 15 16 17 18 19 20 21 22 23 24 25 26 27
000
ASUS44 KMOB 272312
RWRMOB
REGIONAL WEATHER ROUNDUP
NATIONAL WEATHER SERVICE MOBILE AL
500 PM CST MON FEB 27 2017

NOTE: "FAIR" INDICATES FEW OR NO CLOUDS BELOW 12,000 FEET WITH NO
      SIGNIFICANT WEATHER AND/OR OBSTRUCTIONS TO VISIBILITY.

  * THESE STATIONS ARE PART OF THE UNIVERSITY OF SOUTH ALABAMA
    MESONET AND ARE NOT UNDER NWS OR FAA QUALITY CONTROL.

ALZ061>064-280000-
COASTAL ALABAMA

CITY           SKY/WX    TMP DP  RH WIND       PRES   REMARKS
MOBILE REG APT CLOUDY    60  55  83 E13       30.20R
BROOKLEY FIELD CLOUDY    62  57  83 NE15      30.21R
USA CAMPUS*      N/A     59  55  88 E8        30.20S
DOG RIVER*       N/A     61  57  88 N8        31.00R


CITY           SKY/WX    TMP DP  RH WIND       PRES   REMARKS
GULF SHORES    CLOUDY    71  71 100 E7        30.18R

$$

ALZ051>060-280000-
INTERIOR SOUTHWEST AND SOUTH CENTRAL ALABAMA

CITY           SKY/WX    TMP DP  RH WIND       PRES   REMARKS
GREENVILLE     CLOUDY    56  53  90 SE5       30.21R
EVERGREEN      LGT RAIN  56  54  93 E3        30.22R
ATMORE*          N/A     55  55 100 E9        30.22F
ANDALUSIA/OPP  LGT RAIN  57  53  86 NE9G16    30.23R
ANDALUSIA*       N/A     55  54  94 NW7       30.24R
FLORALA APT    LGT RAIN  54  51  90 NE7       30.25R FOG
FLORALA*         N/A     54  54 100 NW7       31.01R

$$

FLZ001>006-280000-
WESTERN FLORIDA PANHANDLE

CITY           SKY/WX    TMP DP  RH WIND       PRES   REMARKS
PENSACOLA      CLOUDY    61  54  77 N15       30.20R
NAS PENSACOLA  CLOUDY    72  68  87 CALM      30.18R
MILTON         LGT RAIN  55  53  93 N8        30.22R
WHTNG S FIELD  LGT RAIN  59  55  87 N10       30.22R FOG


CITY           SKY/WX    TMP DP  RH WIND       PRES   REMARKS
JAY*             N/A     55  52  88 N13       30.24R
DUKE FIELD     CLOUDY    63  55  75 N14       30.21R
CRESTVIEW      RAIN      55  53  93 NW8       30.25R FOG
VALPARAISO     MOCLDY    69  65  87 SE7       30.18R
DESTIN         LGT RAIN  72  71  97 SE10      30.18R

$$

MSZ076-079-280000-
INTERIOR SOUTHEAST MISSISSIPPI

CITY           SKY/WX    TMP DP  RH WIND       PRES   REMARKS
LEAKESVILLE*   NOT AVBL
AGRICOLA*        N/A     57  57 100 S6        30.15F

$$

MARINE OBSERVATIONS

STATION/POSITION TIME  TEMP    WIND        PRES    WAVE
                       AIR SEA DIR/SP/G            HT/PER
                 (UTC) (F)     (DEG/KT/KT) (MB)    (FT/S)
PASCAGOULA       2248   71     120/  6/  9 1020.8R
PETIT BOIS ISLND 2248   71     110/  5/  6 1021.6R
GRAND BAY        2145   70     130/  5     1021.0S
E DAUPHIN ISLAND 2200   69      80/  2/  2 1020.7R
MIDDLE BAY LIGHT 2230   69      30/  6     1021.7R
USCG MOBILE BAY  2248   60 64   50/ 13/ 15 1023.2R
STATE DOCKS      2242   61 64              1022.6R
MEAHER PARK      2230   60      40/  8     1022.7R
WEEKS BAY        2145   73                   N/A
FORT MORGAN      2248   71     100/  5/  6   N/A
12 S ORANGE BCH  2250   70 69   60/  4/  4 1021.5R   5/ 7
PENSACOLA BAY    2248          280/  1/  3   N/A
67 S FORT MORGAN 2230   72     170/ 10     1020.3R

$$

SELECTED LOCATIONS ACROSS THE REGION

CITY           SKY/WX    TMP DP  RH WIND       PRES   REMARKS
NEW ORLEANS    PTSUNNY   75  67  76 S12       30.08R
GULFPORT       PTSUNNY   72  67  84 SE13      30.12R
PASCAGOULA AP  PTSUNNY   73  64  73 S7        30.16R
PASCAGOULA*    NOT AVBL
HATTIESBURG    CLOUDY    61  58  90 E9        30.16F
LAUREL         CLOUDY    61  55  82 E9        30.16S
MERIDIAN       LGT RAIN  64  60  87 SE5       30.16S
JACKSON        CLOUDY    63  58  83 E6        30.10F
MONTGOMERY     CLOUDY    57  52  83 NE3       30.22R
TROY           RAIN      55  55 100 E10       30.22F FOG
ASHFORD*         N/A     55  54  94 NW7       30.24R
DOTHAN         LGT RAIN  59  55  87 N17G24    30.25R
PANAMA CITY    CLOUDY    71  66  84 S8        30.19R

$$





USA.gov is the U.S. government's official web portal to all federal, state and local government web resources and services.